Location: Rio Negrinho
(26.2394°S, 49.4999°W)
Time: 11:57:40
(UTC+00:00)

Hubble Space Telescope - Pass Details

Date: 26 July 2021
Orbit: 535 x 539 km, 28.5° (Epoch: 15 September)

Event Time Altitude Azimuth Distance (km) Brightness Sun altitude
Exits shadow 08:15:13 16° 350° (N) 1,443 2.9 -23.5°
Maximum altitude 08:17:07 21° 26° (NNE) 1,218 2.9 -23.1°
Drops below altitude 10° 08:20:19 10° 77° (ENE) 1,792 4.6 -22.4°
Sets 08:22:58 0° 92° (E) 2,687 5.7 -21.8°
